[[{"header":{"parameterUnit":"m.s-1","parameterCategory":1,"la1":30.2991,"la2":30.254,"lo1":-89.0895,"lo2":-89.0444,"dy":0.0017,"dx":0.0017,"nx":28,"ny":28,"refTime":"2025-03-16T21:00:00:Z","depth":0,"parameterNumber":2,"parameterNumberName":"U-component_of_WINDS"},"data":[0,0,0,0,0,0,0,0,0,0,0,0,0,0,0,0,0,0,0,0,0,0,0,0,0,0,0,0,0,0,0,0,0,0,0,0,0,0,0,0,0,0,0,0,0,0,0,0,0,0,0,0,0,0,0,0,0,0,0.3311,0.3312,0,0.3357,0.3358,0.3358,0.3376,0.3376,0.3375,0.3375,0.3423,0.3424,0.3426,0,0,0,0,0,0,0,0,0,0,0,0,0,0.324,0.3241,0.3311,0.3312,0.3313,0.3357,0.3358,0.3358,0.3376,0.3376,0.3375,0.3375,0.3423,0.3424,0.3426,0,0,0,0,0,0,0,0,0,0,0,0,0,0.3277,0.3242,0.3311,0.3327,0.3328,0.3357,0.3358,0.3359,0.3376,0.3376,0.3375,0.3375,0.3422,0.3424,0.3426,0.3443,0,0,0.3432,0.3433,0,0,0,0,0,0,0,0,0.3275,0.3279,0.3324,0.3326,0.3328,0.3361,0.335,0.3387,0.3376,0.3358,0.3375,0.3375,0.3402,0.3406,0.3415,0.3445,0.3447,0.3433,0.3434,0.3435,0.3435,0,0,0,0,0,0,0,0.3272,0.3278,0.333,0.3324,0.3327,0.3331,0.3336,0.3357,0.3381,0.3359,0.3361,0.3366,0.3403,0.3413,0.3416,0.3448,0.3433,0.3434,0.3436,0.3437,0.3494,0.3495,0,0,0,0,0,0,0.3267,0.3275,0.3328,0.3331,0.33,0.3333,0.3338,0.335,0.3381,0.3385,0.3366,0.3367,0.341,0.3414,0.3418,0.344,0.3435,0.3437,0.3438,0.3494,0.3494,0.3495,0,0,0,0,0,0,0.3265,0.3271,0.3326,0.3304,0.3311,0.3334,0.3347,0.3351,0.3361,0.3386,0.339,0.3371,0.341,0.3415,0.3437,0.3442,0.3438,0.344,0.3494,0.3494,0.3495,0.3484,0,0,0,0,0,0,0.3263,0.3271,0.3277,0.3304,0.3312,0.3344,0.3348,0.3352,0.3364,0.3365,0.3392,0.3396,0.341,0.3433,0.3439,0.3445,0.3441,0.3493,0.3494,0.3495,0.3484,0.3484,0.3484,0,0,0,0,0,0.3261,0.3273,0.3278,0.3284,0.3321,0.3344,0.3349,0.3364,0.3365,0.3371,0.3387,0.3395,0.344,0.3435,0.3442,0.3448,0.3493,0.3494,0.3494,0.3484,0.3484,0.3484,0,0,0,0,0,0,0.3247,0.3276,0.3282,0.3303,0.3321,0.3347,0.3356,0.3364,0.3382,0.3383,0.3401,0.3407,0.3427,0.344,0.3434,0.3466,0.3467,0.3469,0.3457,0.3457,0.3457,0.3454,0.3443,0,0,0,0,0,0.3246,0.3262,0.3287,0.3303,0.3312,0.3332,0.3343,0.3354,0.3373,0.3381,0.3398,0.3417,0.3435,0.3447,0.3465,0.3486,0.3492,0.3493,0.3493,0.3493,0.3494,0.3506,0.3507,0.3497,0.3497,0.3497,0,0,0.3245,0.3263,0.3272,0.3301,0.3316,0.3333,0.3339,0.3356,0.3369,0.3383,0.3405,0.3418,0.344,0.3461,0.3471,0.3472,0.3499,0.3494,0.3494,0.3495,0.3507,0.3508,0.3509,0.3497,0.3497,0.3497,0,0,0.3251,0.3266,0.3281,0.3296,0.3319,0.3332,0.3336,0.3361,0.337,0.3392,0.3403,0.3419,0.345,0.3465,0.3477,0.3489,0.3497,0.3495,0.3494,0.3506,0.3506,0.3507,0.3511,0.3513,0.3496,0.3496,0.3496,0,0.3247,0.3272,0.3288,0.3305,0.3317,0.3331,0.3346,0.336,0.3388,0.3396,0.3397,0.3436,0.3452,0.3477,0.348,0.3489,0.3494,0.3492,0.3505,0.3506,0.3507,0.3511,0.3513,0.3495,0.3495,0.3495,0.3496,0,0.3266,0.3283,0.3292,0.3318,0.3332,0.3347,0.3366,0.3378,0.3387,0.34,0.3422,0.3442,0.3464,0.3471,0.348,0.3497,0.3497,0.3501,0.3503,0.3507,0.3511,0.3513,0.3495,0.3495,0.3495,0.3495,0,0,0.3264,0.3299,0.3302,0.3314,0.334,0.3353,0.337,0.3392,0.3401,0.342,0.3434,0.3461,0.3465,0.3478,0.3489,0.3499,0.3507,0.3502,0.3503,0.3502,0.3527,0.3523,0.3525,0.3513,0.3513,0.3513,0.3525,0,0.3274,0.3304,0.3319,0.3342,0.3358,0.3372,0.3386,0.3404,0.3417,0.3433,0.3447,0.3466,0.347,0.3478,0.3488,0.3504,0.3512,0.3503,0.3526,0.3527,0.352,0.3527,0.3523,0.3533,0.3527,0.3527,0.3527,0,0.3289,0.3307,0.3332,0.3356,0.3363,0.3376,0.3397,0.3412,0.3432,0.3441,0.3456,0.3467,0.3485,0.3485,0.3511,0.3504,0.3515,0.3524,0.3525,0.3527,0.3527,0.353,0.3537,0.3538,0.353,0.353,0.3529,0,0.3285,0.3316,0.3335,0.3344,0.3373,0.3381,0.3394,0.3414,0.3426,0.3444,0.3452,0.3473,0.3484,0.35,0.3516,0.3515,0.354,0.3542,0.3548,0.3548,0.3553,0.3552,0.3561,0.356,0.356,0.356,0.356,0,0.3294,0.3309,0.3333,0.3345,0.3362,0.3379,0.3395,0.3409,0.3427,0.3441,0.3454,0.3468,0.3488,0.3505,0.3518,0.3537,0.3542,0.355,0.3553,0.3548,0.3547,0.3555,0.3555,0.356,0.356,0.356,0.356,0,0.3293,0.331,0.3331,0.3356,0.3363,0.3374,0.3396,0.3408,0.3421,0.344,0.3445,0.3467,0.3486,0.3504,0.353,0.3539,0.3559,0.3563,0.3552,0.3553,0.3559,0.3558,0.3573,0.3576,0.3572,0.3572,0.3572,0,0.3298,0.3309,0.3335,0.3346,0.3358,0.3374,0.3387,0.3404,0.3416,0.344,0.3449,0.347,0.3487,0.3518,0.3537,0.3557,0.3561,0.3566,0.3565,0.356,0.3561,0.356,0.3562,0.3565,0.3565,0.3565,0.3565,0,0.3304,0.3311,0.3328,0.3348,0.3362,0.3379,0.3396,0.3404,0.3425,0.3438,0.3458,0.3471,0.3498,0.3518,0.3541,0.3554,0.3563,0.3565,0.3568,0.3563,0.3556,0.356,0.3551,0.3565,0.3565,0.3565,0.3565,0.3565,0.3305,0.3316,0.3336,0.3355,0.3369,0.3385,0.3397,0.3412,0.3429,0.3452,0.3461,0.3482,0.3502,0.3533,0.3546,0.3562,0.3564,0.3568,0.3569,0.3569,0.3568,0.3554,0.3566,0.3566,0.3566,0.3566,0.3566,0,0.3312,0.3326,0.3342,0.3366,0.338,0.3387,0.3406,0.3418,0.3436,0.3454,0.347,0.3493,0.3513,0.3533,0.3554,0.3563,0.3568,0.3568,0.3568,0.3571,0.3565,0.3561,0.3564,0.3564,0.3564,0.3564,0.3564,0.3564,0.3317,0.3336,0.3346,0.3372,0.3386,0.3405,0.3416,0.343,0.3445,0.347,0.3486,0.3498,0.3517,0.354,0.3558,0.3564,0.3571,0.357,0.3576,0.3571,0.3571,0.3571,0.3567,0.3571,0.3571,0.358,0.358,0.358]},{"header":{"parameterUnit":"m.s-1","parameterCategory":1,"la1":30.2991,"la2":30.254,"lo1":-89.0895,"lo2":-89.0444,"dy":0.0017,"dx":0.0017,"nx":28,"ny":28,"refTime":"2025-03-16T21:00:00:Z","depth":0,"parameterNumber":3,"parameterNumberName":"V-component_of_WINDS"},"data":[0,0,0,0,0,0,0,0,0,0,0,0,0,0,0,0,0,0,0,0,0,0,0,0,0,0,0,0,0,0,0,0,0,0,0,0,0,0,0,0,0,0,0,0,0,0,0,0,0,0,0,0,0,0,0,0,0,0,-4.7783,-4.7785,0,-4.7939,-4.794,-4.7942,-4.7953,-4.7951,-4.7949,-4.7948,-4.8105,-4.8111,-4.8116,0,0,0,0,0,0,0,0,0,0,0,0,0,-4.7495,-4.75,-4.7783,-4.7785,-4.7787,-4.7938,-4.794,-4.7943,-4.7953,-4.7951,-4.7949,-4.7947,-4.8103,-4.811,-4.8117,0,0,0,0,0,0,0,0,0,0,0,0,0,-4.7632,-4.7502,-4.7783,-4.781,-4.7814,-4.7938,-4.794,-4.7943,-4.7953,-4.7951,-4.7948,-4.7946,-4.8101,-4.8109,-4.8118,-4.8224,0,0,-4.8145,-4.8148,0,0,0,0,0,0,0,0,-4.7624,-4.7643,-4.7804,-4.7809,-4.7813,-4.7924,-4.7897,-4.8037,-4.7954,-4.7901,-4.7948,-4.7945,-4.8047,-4.806,-4.8095,-4.8231,-4.8238,-4.8145,-4.8151,-4.8154,-4.8157,0,0,0,0,0,0,0,-4.7615,-4.7636,-4.7844,-4.7807,-4.7812,-4.7815,-4.7832,-4.7923,-4.7986,-4.7905,-4.7906,-4.7925,-4.8049,-4.8086,-4.8098,-4.824,-4.8145,-4.8153,-4.8158,-4.8162,-4.8475,-4.8478,0,0,0,0,0,0,-4.76,-4.7628,-4.7839,-4.7849,-4.7711,-4.7822,-4.7841,-4.7891,-4.7985,-4.7997,-4.7927,-4.7924,-4.8072,-4.8088,-4.8104,-4.8237,-4.8154,-4.8162,-4.8167,-4.8472,-4.8475,-4.8479,0,0,0,0,0,0,-4.7594,-4.7619,-4.7833,-4.7739,-4.7767,-4.783,-4.7886,-4.7895,-4.7933,-4.8002,-4.8013,-4.7953,-4.8071,-4.8092,-4.8195,-4.8242,-4.8166,-4.8174,-4.8468,-4.8473,-4.8477,-4.8501,0,0,0,0,0,0,-4.7585,-4.7616,-4.7657,-4.774,-4.7772,-4.7922,-4.7889,-4.79,-4.7948,-4.7947,-4.803,-4.8041,-4.8071,-4.8182,-4.8203,-4.8253,-4.8181,-4.8464,-4.847,-4.8476,-4.8497,-4.8506,-4.8514,0,0,0,0,0,-4.7575,-4.7657,-4.7659,-4.7685,-4.7824,-4.7924,-4.7942,-4.7975,-4.7952,-4.7994,-4.8038,-4.8038,-4.8233,-4.8192,-4.8217,-4.8269,-4.8461,-4.8468,-4.8475,-4.8493,-4.8504,-4.8514,0,0,0,0,0,0,-4.7577,-4.7668,-4.7672,-4.7782,-4.7846,-4.7926,-4.7979,-4.7986,-4.8057,-4.8053,-4.809,-4.8109,-4.8211,-4.825,-4.8203,-4.8378,-4.8345,-4.8357,-4.8349,-4.8361,-4.837,-4.8359,-4.8188,0,0,0,0,0,-4.759,-4.7664,-4.774,-4.783,-4.7862,-4.7915,-4.796,-4.798,-4.8047,-4.8074,-4.8126,-4.819,-4.8266,-4.8315,-4.8389,-4.8502,-4.8521,-4.855,-4.8559,-4.8566,-4.8577,-4.8642,-4.8657,-4.8502,-4.8502,-4.8501,0,0,-4.7618,-4.7677,-4.7721,-4.7832,-4.7883,-4.796,-4.7938,-4.8019,-4.8076,-4.8086,-4.8188,-4.8228,-4.8302,-4.8412,-4.8462,-4.8447,-4.8624,-4.8575,-4.858,-4.8587,-4.8651,-4.8665,-4.8678,-4.8506,-4.8506,-4.8505,0,0,-4.7709,-4.776,-4.7843,-4.7895,-4.7974,-4.8009,-4.8029,-4.8109,-4.8137,-4.824,-4.8249,-4.8318,-4.8447,-4.8501,-4.8545,-4.8659,-4.8663,-4.8682,-4.8729,-4.8792,-4.8805,-4.8816,-4.8859,-4.8874,-4.8692,-4.8692,-4.8692,0,-4.7734,-4.785,-4.7884,-4.7967,-4.8016,-4.8029,-4.8114,-4.8162,-4.8261,-4.8295,-4.8276,-4.8442,-4.8492,-4.8616,-4.8644,-4.8678,-4.8703,-4.8673,-4.88,-4.8812,-4.8822,-4.8864,-4.888,-4.8694,-4.8694,-4.8693,-4.8693,0,-4.7878,-4.7959,-4.8016,-4.8113,-4.8168,-4.8251,-4.8298,-4.835,-4.8365,-4.8403,-4.8509,-4.857,-4.8658,-4.8688,-4.8703,-4.8815,-4.8804,-4.8792,-4.876,-4.8839,-4.8879,-4.8895,-4.8697,-4.8696,-4.8695,-4.8695,0,0,-4.7974,-4.809,-4.8111,-4.8156,-4.8245,-4.8308,-4.8392,-4.8479,-4.8524,-4.8591,-4.8664,-4.8774,-4.8766,-4.8816,-4.8837,-4.8892,-4.8982,-4.8875,-4.8877,-4.8895,-4.9112,-4.9122,-4.914,-4.8985,-4.8988,-4.899,-4.9107,0,-4.8077,-4.8228,-4.8262,-4.8392,-4.8468,-4.8483,-4.8556,-4.8619,-4.8657,-4.8727,-4.8768,-4.8847,-4.8827,-4.8858,-4.8914,-4.896,-4.9027,-4.8951,-4.9054,-4.9057,-4.9037,-4.916,-4.917,-4.9277,-4.9122,-4.9125,-4.9127,0,-4.8217,-4.829,-4.8428,-4.851,-4.8543,-4.8609,-4.8693,-4.8759,-4.8831,-4.8854,-4.8912,-4.8928,-4.9017,-4.8979,-4.9103,-4.9051,-4.9095,-4.9124,-4.9129,-4.9142,-4.9098,-4.9178,-4.9312,-4.9329,-4.9151,-4.9149,-4.9147,0,-4.8277,-4.8409,-4.851,-4.8548,-4.8644,-4.8691,-4.8733,-4.8803,-4.8854,-4.8927,-4.8961,-4.9042,-4.9088,-4.9151,-4.9189,-4.9157,-4.9312,-4.9276,-4.9335,-4.9334,-4.9368,-4.9366,-4.9513,-4.9392,-4.9392,-4.9392,-4.9391,0,-4.8389,-4.8474,-4.8538,-4.8601,-4.8696,-4.8735,-4.8829,-4.8871,-4.8933,-4.9004,-4.902,-4.9087,-4.9133,-4.9206,-4.9236,-4.9336,-4.9355,-4.9378,-4.9385,-4.9378,-4.9376,-4.9409,-4.9403,-4.9396,-4.9395,-4.9394,-4.9394,0,-4.8472,-4.8519,-4.863,-4.8713,-4.8736,-4.8804,-4.8875,-4.8937,-4.8975,-4.9065,-4.9088,-4.9148,-4.9235,-4.928,-4.9387,-4.9408,-4.9522,-4.9523,-4.9498,-4.9501,-4.9559,-4.9554,-4.9735,-4.9762,-4.9621,-4.9622,-4.9623,0,-4.8542,-4.8608,-4.8699,-4.8749,-4.8793,-4.8872,-4.8925,-4.8965,-4.9019,-4.9108,-4.9159,-4.9247,-4.932,-4.9459,-4.9512,-4.9596,-4.9601,-4.9658,-4.9613,-4.9605,-4.9605,-4.9602,-4.961,-4.9667,-4.9668,-4.9669,-4.967,0,-4.8662,-4.8683,-4.8759,-4.8844,-4.8907,-4.8975,-4.9043,-4.9082,-4.9134,-4.9194,-4.9284,-4.9341,-4.9453,-4.9541,-4.9629,-4.9672,-4.9681,-4.9684,-4.9703,-4.9697,-4.9681,-4.9693,-4.9522,-4.968,-4.9679,-4.9678,-4.9678,-4.9677,-4.8743,-4.8804,-4.8878,-4.8963,-4.9018,-4.9082,-4.9145,-4.9192,-4.9268,-4.9363,-4.9382,-4.9478,-4.955,-4.9669,-4.9716,-4.9792,-4.978,-4.9806,-4.9813,-4.982,-4.9824,-4.9667,-4.9807,-4.9807,-4.9807,-4.9807,-4.9807,0,-4.8866,-4.8916,-4.8993,-4.9089,-4.9156,-4.9158,-4.9234,-4.929,-4.9375,-4.9442,-4.9514,-4.9619,-4.9705,-4.9766,-4.9854,-4.9903,-4.9909,-4.9925,-4.9923,-4.9934,-4.9828,-4.9805,-4.9919,-4.9919,-4.9919,-4.9919,-4.9919,-4.9918,-4.8939,-4.9042,-4.9072,-4.9204,-4.9252,-4.9347,-4.9391,-4.945,-4.9504,-4.9621,-4.9693,-4.9732,-4.9798,-4.9891,-4.9971,-4.9986,-5.0019,-5.0035,-5.0051,-4.9952,-4.994,-4.9929,-4.9908,-5.0041,-5.0041,-5.0151,-5.0152,-5.0152]}]]